Regional Weather Roundup
Issued by NWS

Home | Current Version | Previous Version | Graphics & Text | Print | Product List | Glossary On
Versions: 1 2 3 4 5 6 7 8 9 10 11 12 13 14 15 16 17 18 19 20 21 22 23 24 25 26 27 28 29 30 31 32 33 34 35 36 37 38 39 40 41 42 43 44 45 46 47 48 49 50
000
ASUS45 KABQ 251210
RWRNM
NEW MEXICO REGIONAL WEATHER ROUNDUP
NATIONAL WEATHER SERVICE ALBUQUERQUE NM
600 AM MDT THU MAY 25 2017

NOTE: "FAIR" MEANS FEW OR NO CLOUDS BELOW 12,000 FEET AGL WITH NO
       SIGNIFICANT WEATHER OR OBSTRUCTIONS TO VISION.

      THIS PRODUCT IS RELEASED AS TWO VERSIONS.  ONE VERSION NEAR
      THE TOP OF THE HOUR CONTAINING PRELIMINARY DATA FROM ALBUQUERQUE
      AND OTHER STATIONS.  A FINAL VERSION WITH ADDITIONAL DATA IS
      ISSUED ABOUT 10 MINUTES AFTER THE HOUR.

NMZ501-503-504-510>518-251300-
NORTHWEST PLATEAU/NORTHCENTRAL MOUNTAINS

CITY           SKY/WX    TMP DP  RH WIND       PRES   REMARKS
FARMINGTON     FAIR      60  20  21 W13       29.75S
6HR MIN TEMP:  59; 6HR MAX TEMP:  69;

LOS ALAMOS     FAIR      63  17  16 W21G33    29.89S
SANTA FE       FAIR      53  26  35 SE5       29.85R
6HR MIN TEMP:  53; 6HR MAX TEMP:  64;

TAOS           FAIR      50  23  34 NE7       29.90R
ANGEL FIRE     FAIR      51  25  35 W10G16    29.95S

$$
NMZ402-403-502-505>509-251300-
WESTCENTRAL MOUNTAINS/SOUTHWEST MOUNTAINS

CITY           SKY/WX    TMP DP  RH WIND       PRES   REMARKS
GALLUP         FAIR      57  24  28 SW8       29.91R
6HR MIN TEMP:  50; 6HR MAX TEMP:  67;

SILVER CITY    FAIR      54  22  29 N9        29.92F

$$
NMZ407-409-411-412-251300-
SOUTHERN DESERTS

CITY           SKY/WX    TMP DP  RH WIND       PRES   REMARKS
DEMING         FAIR      57  23  26 SW6       29.87R
6HR MIN TEMP:  56; 6HR MAX TEMP:  69;

LAS CRUCES     FAIR      68  19  15 W15       29.86S
HOLLOMAN AFB   FAIR      69  20  15 W12       29.83R
T OR C         FAIR      69  22  16 W9        29.83R
6HR MIN TEMP:  69; 6HR MAX TEMP:  77;


$$
NMZ519>523-251300-
CENTRAL VALLEYS/CENTRAL HIGHLANDS

CITY           SKY/WX    TMP DP  RH WIND       PRES   REMARKS
ALBUQUERQUE    MOCLDY    67  22  18 VRB3      29.83R
6HR MIN TEMP:  67; 6HR MAX TEMP:  75;

DOUBLE EAGLE   MOCLDY    61  25  25 SW15      29.84R
MORIARTY ARPT  FAIR      66  24  21 W17G23    29.86S
6HR MIN TEMP:  55; 6HR MAX TEMP:  69;

CLINES CORNERS FAIR      59  23  25 W20       29.91R
6HR MIN TEMP:  52; 6HR MAX TEMP:  62;

BELEN          FAIR      62  22  21 W10       29.83S
6HR MIN TEMP:  62; 6HR MAX TEMP:  73;

SOCORRO        FAIR      68  23  18 S3        29.82R
6HR MIN TEMP:  68; 6HR MAX TEMP:  80;


$$
NMZ524>526-539-540-251300-
SOUTHCENTRAL MOUNTAINS

CITY           SKY/WX    TMP DP  RH WIND       PRES   REMARKS
RUIDOSO        FAIR      64  19  17 SW6       29.96R

$$
NMZ527>531-251300-
NORTHEAST HIGHLANDS/NORTHEAST PLAINS

CITY           SKY/WX    TMP DP  RH WIND       PRES   REMARKS
LAS VEGAS      FAIR      59  23  25 W5        29.86S
6HR MIN TEMP:  53; 6HR MAX TEMP:  63;

RATON          FAIR      58  28  32 SW5       29.77S
6HR MIN TEMP:  47; 6HR MAX TEMP:  66;

CLAYTON        FAIR      63  33  32 W14       29.66R
6HR MIN TEMP:  56; 6HR MAX TEMP:  65;


$$
NMZ532>537-251300-
EASTCENTRAL PLAINS

CITY           SKY/WX    TMP DP  RH WIND       PRES   REMARKS
SANTA ROSA     FAIR      60  26  27 W6        29.74S
TUCUMCARI      FAIR      64  33  31 W16       29.64R
6HR MIN TEMP:  55; 6HR MAX TEMP:  69;

CANNON AFB     FAIR      65  30  27 W14       29.71R
6HR MIN TEMP:  62; 6HR MAX TEMP:  72;

CLOVIS AIRPORT FAIR      55  34  44 W12       29.70R

$$
NMZ028-029-538-251300-
SOUTHEAST PLAINS

CITY           SKY/WX    TMP DP  RH WIND       PRES   REMARKS
ROSWELL        FAIR      65  25  22 E7        29.71R
6HR MIN TEMP:  65; 6HR MAX TEMP:  80;

ARTESIA        FAIR      73  23  15 W16       29.71R
CARLSBAD       FAIR      78  21  12 W14       29.69R
6HR MIN TEMP:  65; 6HR MAX TEMP:  78;

HOBBS          CLEAR     55  43  62 SW5       29.74R


$$



USA.gov is the U.S. government's official web portal to all federal, state and local government web resources and services.